TimeCDT,TemperatureF,Dew PointF,Humidity,Sea Level PressureIn,VisibilityMPH,Wind Direction,Wind SpeedMPH,Gust SpeedMPH,PrecipitationIn,Events,Conditions,WindDirDegrees,DateUTC
12:56 AM,63.0,48.9,60,29.75,10.0,SSE,15.0,-,N/A,,Clear,150,2013-09-23 05:56:00
1:56 AM,61.0,48.0,62,29.75,10.0,SSE,15.0,21.9,N/A,,Clear,150,2013-09-23 06:56:00
2:56 AM,60.1,46.9,62,29.73,10.0,SSE,15.0,-,N/A,,Clear,150,2013-09-23 07:56:00
3:56 AM,59.0,46.9,64,29.72,10.0,SSE,16.1,23.0,N/A,,Clear,150,2013-09-23 08:56:00
4:56 AM,57.9,46.9,67,29.72,10.0,SSE,17.3,23.0,N/A,,Clear,160,2013-09-23 09:56:00
5:56 AM,57.9,46.9,67,29.72,10.0,SSE,15.0,-,N/A,,Clear,160,2013-09-23 10:56:00
6:56 AM,57.0,46.9,69,29.73,10.0,SSE,15.0,-,N/A,,Clear,150,2013-09-23 11:56:00
7:56 AM,57.9,46.9,67,29.73,10.0,SSE,16.1,24.2,N/A,,Clear,150,2013-09-23 12:56:00
8:56 AM,60.1,46.9,62,29.73,10.0,SSE,15.0,23.0,N/A,,Clear,160,2013-09-23 13:56:00
9:56 AM,66.0,48.0,52,29.74,10.0,SSE,20.7,29.9,N/A,,Clear,150,2013-09-23 14:56:00
10:56 AM,70.0,48.9,47,29.72,10.0,SSE,17.3,26.5,N/A,,Clear,160,2013-09-23 15:56:00
11:56 AM,75.0,48.9,40,29.72,10.0,SSE,21.9,25.3,N/A,,Clear,160,2013-09-23 16:56:00
12:56 PM,77.0,48.0,36,29.69,10.0,SSE,24.2,31.1,N/A,,Clear,160,2013-09-23 17:56:00
1:56 PM,78.1,48.0,35,29.69,10.0,South,21.9,29.9,N/A,,Clear,170,2013-09-23 18:56:00
2:56 PM,79.0,46.0,31,29.68,10.0,SSE,20.7,31.1,N/A,,Clear,160,2013-09-23 19:56:00
3:56 PM,77.0,44.1,31,29.63,9.0,SE,21.9,27.6,N/A,,Clear,130,2013-09-23 20:56:00
4:56 PM,77.0,44.1,31,29.68,10.0,SE,21.9,29.9,N/A,,Partly Cloudy,140,2013-09-23 21:56:00
5:56 PM,73.9,46.9,38,29.68,10.0,ESE,16.1,24.2,0.00,,Mostly Cloudy,120,2013-09-23 22:56:00
6:56 PM,71.1,51.1,49,29.70,10.0,ESE,11.5,-,0.00,,Scattered Clouds,120,2013-09-23 23:56:00
7:56 PM,68.0,51.1,55,29.70,10.0,ESE,8.1,-,N/A,,Clear,110,2013-09-24 00:56:00
8:56 PM,68.0,50.0,52,29.73,10.0,SE,10.4,-,0.00,Rain,Light Rain,130,2013-09-24 01:56:00
9:56 PM,63.0,54.0,72,29.74,7.0,East,5.8,-,0.05,Rain,Light Rain,100,2013-09-24 02:56:00
11:56 PM,59.0,55.0,87,29.72,9.0,ENE,11.5,-,0.14,Rain,Light Rain,60,2013-09-24 04:56:00